Regional Weather Roundup
Issued by NWS Grand Forks, ND

Home | Current Version | Previous Version | Graphics & Text | Print | Product List | Glossary On
Versions: 1 2 3 4 5 6 7 8 9 10 11 12 13 14 15 16 17 18 19 20 21 22 23 24 25 26 27 28 29 30 31 32 33 34 35 36 37 38 39 40 41 42 43 44 45 46 47 48 49 50
000
ASUS43 KFGF 301610
RWRFGF
PRAIRIE TO PINES  WEATHER ROUNDUP
NATIONAL WEATHER SERVICE EASTERN NORTH DAKOTA/GRAND FORKS ND
1100 AM CDT THU JUL 30 2015

 **SATELLITE DATA USED TO AUGMENT SKY COVER AT AUTOMATED STATIONS**
 *****  WEATHER ACROSS EASTERN NORTH DAKOTA  *****

CITY           SKY/WX    TMP DP  RH WIND       PRES   REMARKS
GRAND FORKS    MOSUNNY   77  56  48 NW17      30.00S
GRAND FRKS AFB SUNNY     76  57  52 NW15      30.02R
GRAND FRKS NWS   N/A     75 N/A N/A W15         N/A
DEVILS LAKE    SUNNY     72  55  56 W16       30.06R
FARGO          PTSUNNY   75  58  55 W12       30.06S
WAHPETON ARPT  SUNNY     77  52  41 NW15      30.08S
$$

 ***** WEATHER ACROSS CENTRAL AND WESTERN NORTH DAKOTA  *****

CITY           SKY/WX    TMP DP  RH WIND       PRES   REMARKS
BISMARCK       SUNNY     76  51  41 NW7       30.15S
MINOT          SUNNY     74  51  44 W16       30.12S
JAMESTOWN      SUNNY     73  55  53 W9        30.11S
MINOT AFB      SUNNY     75  55  50 NW15      30.10S
GARRISON         N/A     73  55  53 NW14      30.15S
WILLISTON      SUNNY     74  52  46 W8        30.18F
DICKINSON      SUNNY     76  46  34 W10       30.18S
HETTINGER      SUNNY     80  46  30 W12       30.21F
$$

 *****  OTHER AIRPORT OBSERVATIONS IN OUR AREA  *****

CITY           SKY/WX    TMP DP  RH WIND       PRES   REMARKS
WALHALLA       FAIR      73  57  56 MISG      29.98S
GRAFTON AIRPOR FAIR      75  59  57 W15G22    29.99S
VALLEY CITY AR FAIR      73  57  56 W12       30.09F
CANDO          NOT AVBL
CAVALIER APRT  FAIR      75  57  53 NW14G20   29.98S
GWINNER        FAIR      75  55  50 NW13      30.12S
SHEYENNE NWR     N/A     77  58  51 NW7       29.95S
ROLLA            N/A     70  54  56 W14G23    30.07S
 ***** THE ABOVE OBSERVATIONS ARE NON NWS ARE NOT QUALITY
       CONTROLLED AND MAY MIS-REPORT RAIN FOR SNOW...
$$

  *****  WEATHER ACROSS NORTHERN MINNESOTA  *****

CITY           SKY/WX    TMP DP  RH WIND       PRES   REMARKS
FLAG ISLAND    SUNNY     72  57  60 W12       29.89S
WARROAD        MOSUNNY   70  63  78 W13       29.93S
ROSEAU         MOSUNNY   73  63  68 W12       29.94S
HALLOCK        SUNNY     73  57  56 W15G21    29.96S
THF RVR FALLS  SUNNY     72  57  60 W15       30.00S
BAUDETTE       SUNNY     72  60  66 W12       29.92S
WASKISH        SUNNY     72  61  68 SW15G21   29.95F
CROOKSTON      SUNNY     75  57  53 NW17      30.01S
$$
  *****  WEATHER ACROSS CENTRAL AND WEST MINNESOTA  *****

CITY           SKY/WX    TMP DP  RH WIND       PRES   REMARKS
FOSSTON        MOSUNNY   70  59  68 W10G18    30.02F
BEMIDJI        SUNNY     73  58  57 W14G20    30.00S
PARK RAPIDS    SUNNY     76  57  51 W16       30.04R
ELBOW LAKE     FAIR      73  60  62 W13       30.09R
WADENA         SUNNY     75  57  53 W10       30.05S
DETROIT LAKES  MOSUNNY   72  55  56 W17       30.07S
MOORHEAD       MOSUNNY   72  61  68 NW9       30.07S
FERGUS FALLS   SUNNY     73  59  60 NW14      30.07F
MORRIS MN      SUNNY     77  61  57 W13       30.09R
STAPLES        SUNNY     75  55  50 W14       30.05R
$$
  *****  WEATHER ELSEWHERE ACROSS MINNESOTA  *****

CITY           SKY/WX    TMP DP  RH WIND       PRES   REMARKS
DULUTH         MOSUNNY   76  57  51 W14G20    29.96S
INTRNTL FALLS  MOSUNNY   69  59  70 W8        29.91F
ELY            SUNNY     72  50  46 NW13G20   29.93R
CLOQUET        SUNNY     75  54  46 W12       29.97F
WHEATON        SUNNY     75  57  53 W10G17    30.11R
BRAINERD       SUNNY     76  58  53 W16G24    30.03R
HIBBING        SUNNY     75  57  53 VRB7      29.95F
ALEXANDRIA     SUNNY     74  58  57 NW8       30.10R
SAINT CLOUD    SUNNY     78  58  49 W14       30.05S
MINNEAPOLIS    SUNNY     80  57  45 W13       30.04S
$$

  *****  WEATHER ACROSS SOUTH DAKOTA  *****

CITY           SKY/WX    TMP DP  RH WIND       PRES   REMARKS
SIOUX FALLS    SUNNY     78  61  55 W7        30.15S
BROOKINGS      SUNNY     75  57  53 N8        30.16S
WATERTOWN      SUNNY     79  51  37 NW7       30.15R
HURON          SUNNY     78  57  48 CALM      30.14R
SISSETON         N/A     79  54  41 NW16      30.09S
ABERDEEN       SUNNY     77  62  59 S5        30.12F
MITCHELL       SUNNY     78  59  51 CALM      30.15S
PIERRE         SUNNY     80  50  34 W5        30.16R
MOBRIDGE       SUNNY     78  60  53 SW5       30.13F
RAPID CITY     SUNNY     80  51  36 CALM      30.26S
$$

  *****  SOME WEATHER IN NEARBY STATES *****

CITY           SKY/WX    TMP DP  RH WIND       PRES   REMARKS
GLASGOW MT     SUNNY     71  53  52 W6        30.22R
GREAT FALLS MT SUNNY     73  43  33 SW8       30.29S
CHEYENNE WY    SUNNY     74  45  35 N12       30.41S
SCOTTSBLUFF NE SUNNY     75  54  47 CALM      30.30F
OMAHA NE       MOSUNNY   82  60  47 CALM      30.20F
DES MOINES IA  MOSUNNY   83  60  45 W10       30.17R
DAVENPORT IA   SUNNY     79  66  64 W6        30.13R
CHICAGO IL     SUNNY     82  54  37 NW15      30.06S
EAU CLAIRE WI  SUNNY     78  58  49 W10       30.00F
LA CROSSE WI   SUNNY     82  57  42 W10       30.04S
$$

  *****  SOME NATIONAL WEATHER *****

CITY           SKY/WX    TMP DP  RH WIND       PRES   REMARKS
LA GUARDIA NY  CLOUDY    85  72  65 S9        29.87F HX  91
RALEIGH NC     MOSUNNY   88  72  58 W3        29.98S HX  94
ATLANTA GA     PTSUNNY   88  74  63 E6        30.02S HX  96
NEW ORLEANS LA PTSUNNY   88  75  65 N10       30.01F HX  97
OKLAHOMA CITY  MOSUNNY   90  69  50 VRB5      30.15S HX  94
ALBUQUERQUE NM PTSUNNY   69  61  75 NW5       30.40S
SALT LAKE CITY MOSUNNY   75  35  23 CALM      30.30S
LOS ANGELES CA PTSUNNY   69  65  86 W7        30.02R
BOISE ID       SUNNY     77  37  23 CALM      30.25R
SEATTLE WA     SUNNY     72  53  51 NE7       30.13R
$$

*** WEATHER ACROSS MANITOBA...SASKATCHEWAN AND ONTARIO ***
                ***ONTARIO***

CITY           SKY/WX    TMP DP  RH WIND       PRES   REMARKS
GERALDTON      PTSUNNY   63  54  72 W12G22    29.69R
THUNDER BAY    MOSUNNY   73  54  49 W14G28    29.81R
SIOUX LOOKOUT  PTSUNNY   70  57  64 W10G21    29.82S
TORONTO        PTSUNNY   82  55  39 W23G31    29.85S
BIG TROUT LK   CLOUDY    59  54  82 NW23G32   29.53R
PICKLE LAKE    PTSUNNY   61  55  82 W16G25    29.69R
DRYDEN         SUNNY     70  55  60 W14G24    29.86S
KENORA         PTSUNNY   68  61  77 W6        29.89F
$$
                *** MANITOBA***

CITY           SKY/WX    TMP DP  RH WIND       PRES   REMARKS
BRANDON        SUNNY     72  57  60 W13G22    30.01F
DAUPHIN        SUNNY     72  57  60 W18G25    29.94S
ISLAND LAKE    PTSUNNY   66  54  63 W9        29.73S
PILOT MOUND      N/A     72  57  60 W10         N/A
THE PAS        MOSUNNY   68  57  68 W12       29.86F
THOMPSON       NOT AVBL
WINNIPEG       NOT AVBL
LYNN LAKE        N/A    N/A N/A N/A MISG        N/A
CHURCHILL      CLOUDY    52  52 100 N20G25    29.66R
GILLAM         PTSUNNY   61  54  77 N17G24    29.70R
$$
                ***SASKATCHEWAN***

CITY           SKY/WX    TMP DP  RH WIND       PRES   REMARKS
ESTEVAN        MOSUNNY   70  57  64 W15       30.14S
KINDERSLEY     MOSUNNY   66  54  63 W7        30.20S
LLOYDMINSTER   MOSUNNY   66  48  52 W13       30.14S
PRINCE ALBERT  MOSUNNY   68  52  56 NW18G25   30.04R
REGINA         MOSUNNY   70  54  56 NW13G20   30.15S
YORKTON        SUNNY     70  54  56 NW16G25   30.03S
N. BATTLEFORD  SUNNY     68  48  49 NW13G18   30.14F
LA RONGE       MOSUNNY   66  54  63 W17G23    29.94S
SASKATOON      SUNNY     68  50  52 W16       30.13F
SWIFT CURRENT  SUNNY     68  48  49 NW7       30.23S
$$
NOTE: THESE ARE AUTOMATED STATIONS WITH LIMITED QUALITY CONTROL
      "FAIR" INDICATES FEW OR NO CLOUDS BELOW 12,000 FEET WITH NO
      SIGNIFICANT WEATHER AND/OR OBSTRUCTIONS TO VISIBILITY.
      SKY/WX - SKY CONDITION AND SIGNIFICANT WEATHER.
      TMP - AIR TEMPERATURE.    DP   - DEWPOINT TEMPERATURE.
      RH  - RELATIVE HUMIDITY.  PRES - PRESSURE.
      HX  - HEAT INDEX.         WCI  - WIND CHILL INDEX.
$


USA.gov is the U.S. government's official web portal to all federal, state and local government web resources and services.